[[{"header":{"parameterUnit":"m.s-1","parameterCategory":1,"la1":30.2991,"la2":30.254,"lo1":-89.0895,"lo2":-89.0444,"dy":0.0017,"dx":0.0017,"nx":28,"ny":28,"refTime":"2024-02-25T03:00:00:Z","depth":0,"parameterNumber":2,"parameterNumberName":"U-component_of_WINDS"},"data":[0,0,0,0,0,0,0,0,0,0,0,0,0,0,0,0,0,0,0,0,0,0,0,0,0,0,0,0,0,0,0,0,0,0,0,0,0,0,0,0,0,0,0,0,0,0,0,0,0,0,0,0,0,0,0,0,0,0,2.2589,2.259,0,2.2682,2.2683,2.2684,2.265,2.2648,2.2646,2.2644,2.2743,2.2747,2.2752,0,0,0,0,0,0,0,0,0,0,0,0,0,2.2384,2.2388,2.2589,2.259,2.2591,2.2682,2.2683,2.2685,2.2651,2.2648,2.2645,2.2643,2.2741,2.2747,2.2752,0,0,0,0,0,0,0,0,0,0,0,0,0,2.2475,2.2389,2.2589,2.2585,2.2586,2.2682,2.2683,2.2685,2.2651,2.2648,2.2645,2.2642,2.2739,2.2746,2.2753,2.2859,0,0,2.2774,2.2777,0,0,0,0,0,0,0,0,2.247,2.2483,2.2584,2.2586,2.2586,2.2651,2.2647,2.2744,2.2652,2.2626,2.2644,2.264,2.2715,2.2724,2.2748,2.2864,2.2868,2.2774,2.2779,2.2782,2.2784,0,0,0,0,0,0,0,2.2464,2.2478,2.2626,2.2586,2.2587,2.258,2.2589,2.2665,2.2688,2.2628,2.2626,2.2637,2.2715,2.2742,2.275,2.2869,2.2774,2.278,2.2785,2.2787,2.3077,2.3081,0,0,0,0,0,0,2.2456,2.2473,2.2623,2.2629,2.2519,2.2586,2.2597,2.2634,2.2687,2.2691,2.264,2.2635,2.2731,2.2742,2.2754,2.2882,2.2782,2.2788,2.2792,2.3074,2.3078,2.3082,0,0,0,0,0,0,2.2452,2.247,2.2619,2.255,2.2569,2.2593,2.2635,2.2637,2.2664,2.2695,2.2699,2.2663,2.2729,2.2744,2.2833,2.2885,2.2791,2.2797,2.307,2.3075,2.308,2.3139,0,0,0,0,0,0,2.2446,2.2469,2.2509,2.2552,2.2573,2.2696,2.2638,2.2641,2.2676,2.267,2.2718,2.2723,2.2728,2.2823,2.284,2.2893,2.2803,2.3065,2.3072,2.3078,2.3133,2.3146,2.3157,0,0,0,0,0,2.2439,2.2522,2.2511,2.2529,2.2623,2.2699,2.2711,2.2715,2.268,2.2721,2.2741,2.2721,2.2876,2.2832,2.2851,2.2907,2.3062,2.307,2.3078,2.3127,2.3143,2.3157,0,0,0,0,0,0,2.2486,2.2528,2.2516,2.2615,2.2654,2.2693,2.2745,2.2732,2.2782,2.2775,2.2778,2.2789,2.2881,2.2903,2.2853,2.3013,2.2964,2.2976,2.2995,2.3011,2.3023,2.3016,2.2809,0,0,0,0,0,2.2507,2.2565,2.2599,2.2683,2.2703,2.2721,2.2754,2.2753,2.2794,2.2811,2.2837,2.2879,2.2937,2.2975,2.303,2.3136,2.3146,2.3183,2.3195,2.3205,2.3216,2.3274,2.3291,2.3108,2.3108,2.3108,0,0,2.2553,2.2583,2.2619,2.2693,2.2723,2.2784,2.2735,2.2801,2.2846,2.2821,2.2906,2.2928,2.2974,2.3072,2.3117,2.3093,2.3269,2.3216,2.3223,2.3229,2.3284,2.3302,2.3317,2.3114,2.3113,2.3112,0,0,2.2667,2.2695,2.2769,2.28,2.2845,2.2856,2.2874,2.2916,2.2929,2.3015,2.2997,2.3051,2.3151,2.3185,2.3215,2.3342,2.3327,2.336,2.3424,2.3481,2.3495,2.3508,2.3554,2.3571,2.3371,2.3371,2.3371,0,2.2718,2.2808,2.2808,2.2876,2.2909,2.2888,2.2963,2.2993,2.3055,2.3079,2.3052,2.3177,2.3206,2.3312,2.3343,2.3368,2.3389,2.3355,2.3493,2.3506,2.3518,2.3562,2.3579,2.3375,2.3374,2.3374,2.3373,0,2.2869,2.2931,2.2985,2.3044,2.3084,2.3155,2.3167,2.3207,2.3203,2.3217,2.3305,2.334,2.3402,2.3427,2.3424,2.3533,2.3517,2.3492,2.3443,2.3539,2.358,2.3597,2.338,2.3379,2.3378,2.3377,0,0,2.3015,2.3073,2.3093,2.312,2.3169,2.3218,2.3288,2.3348,2.3382,2.3426,2.3486,2.3571,2.3547,2.3582,2.3582,2.3632,2.3731,2.36,2.3601,2.3624,2.3854,2.3873,2.3893,2.3721,2.3724,2.3727,2.385,0,2.3133,2.3255,2.3258,2.3371,2.3429,2.341,2.3472,2.3509,2.3524,2.3577,2.3594,2.3655,2.3619,2.364,2.3688,2.3709,2.3778,2.37,2.3778,2.378,2.3767,2.3914,2.3935,2.405,2.3867,2.3869,2.3871,0,2.3287,2.3335,2.3453,2.3494,2.3518,2.3573,2.3629,2.3679,2.3721,2.3729,2.3767,2.3761,2.3834,2.3782,2.3883,2.383,2.3862,2.3878,2.3882,2.389,2.3832,2.3926,2.4087,2.4104,2.3897,2.3895,2.3893,0,2.3383,2.3476,2.3559,2.3583,2.3632,2.3671,2.3694,2.3733,2.3769,2.3818,2.3841,2.3898,2.3929,2.3974,2.3983,2.3944,2.4085,2.4034,2.4094,2.4094,2.4125,2.4123,2.4293,2.4145,2.4145,2.4144,2.4144,0,2.3514,2.3588,2.3602,2.3654,2.3735,2.3738,2.382,2.3839,2.3874,2.393,2.3917,2.397,2.3978,2.4033,2.4041,2.4124,2.4138,2.4147,2.4149,2.4149,2.4148,2.417,2.4162,2.4149,2.4148,2.4147,2.4146,0,2.3635,2.3647,2.3737,2.3776,2.3788,2.3846,2.3881,2.393,2.3944,2.4015,2.4031,2.4054,2.4118,2.4131,2.4207,2.4212,2.4311,2.4305,2.4297,2.4296,2.4356,2.435,2.4547,2.4573,2.4407,2.4409,2.441,0,2.3718,2.3774,2.3819,2.3855,2.3879,2.3937,2.3973,2.3979,2.4017,2.407,2.4113,2.4175,2.4225,2.4329,2.4353,2.4411,2.4406,2.4471,2.4414,2.4413,2.4407,2.4404,2.441,2.4481,2.4483,2.4485,2.4486,0,2.3865,2.3869,2.3921,2.3976,2.4019,2.4063,2.4104,2.4134,2.4145,2.4189,2.4254,2.4293,2.437,2.4433,2.4491,2.4515,2.4503,2.4503,2.452,2.4521,2.4514,2.4519,2.4326,2.4499,2.4497,2.4496,2.4496,2.4495,2.397,2.4019,2.4058,2.4117,2.4148,2.4188,2.4236,2.4256,2.4309,2.4372,2.4372,2.4443,2.4485,2.4562,2.459,2.4646,2.4626,2.4651,2.4657,2.4663,2.4669,2.4505,2.4657,2.4656,2.4656,2.4656,2.4655,0,2.4117,2.4141,2.4195,2.4253,2.4299,2.4282,2.4327,2.4368,2.443,2.4469,2.4519,2.4593,2.4654,2.4682,2.4742,2.4782,2.4778,2.4798,2.4795,2.4801,2.4683,2.4662,2.48,2.48,2.48,2.48,2.48,2.48,2.4198,2.428,2.4288,2.4386,2.441,2.4479,2.4506,2.4542,2.4574,2.4657,2.4707,2.4725,2.476,2.4823,2.4878,2.4885,2.4908,2.493,2.4935,2.4824,2.4809,2.4795,2.4776,2.4935,2.4935,2.5048,2.5049,2.505]},{"header":{"parameterUnit":"m.s-1","parameterCategory":1,"la1":30.2991,"la2":30.254,"lo1":-89.0895,"lo2":-89.0444,"dy":0.0017,"dx":0.0017,"nx":28,"ny":28,"refTime":"2024-02-25T03:00:00:Z","depth":0,"parameterNumber":3,"parameterNumberName":"V-component_of_WINDS"},"data":[0,0,0,0,0,0,0,0,0,0,0,0,0,0,0,0,0,0,0,0,0,0,0,0,0,0,0,0,0,0,0,0,0,0,0,0,0,0,0,0,0,0,0,0,0,0,0,0,0,0,0,0,0,0,0,0,0,0,-0.0917,-0.0916,0,-0.0837,-0.0836,-0.0835,-0.0871,-0.0873,-0.0875,-0.0877,-0.0792,-0.0788,-0.0784,0,0,0,0,0,0,0,0,0,0,0,0,0,-0.1097,-0.1093,-0.0917,-0.0916,-0.0915,-0.0837,-0.0836,-0.0835,-0.0871,-0.0873,-0.0875,-0.0878,-0.0793,-0.0788,-0.0783,0,0,0,0,0,0,0,0,0,0,0,0,0,-0.1018,-0.1092,-0.0917,-0.0923,-0.0923,-0.0837,-0.0836,-0.0835,-0.087,-0.0873,-0.0876,-0.0879,-0.0795,-0.0789,-0.0783,-0.0685,0,0,-0.0764,-0.0761,0,0,0,0,0,0,0,0,-0.1022,-0.1011,-0.0923,-0.0923,-0.0922,-0.0867,-0.0868,-0.0784,-0.0869,-0.089,-0.0877,-0.088,-0.0814,-0.0807,-0.0785,-0.0681,-0.0677,-0.0763,-0.076,-0.0757,-0.0755,0,0,0,0,0,0,0,-0.1028,-0.1015,-0.0885,-0.0922,-0.0921,-0.0929,-0.0921,-0.0853,-0.0836,-0.0888,-0.0891,-0.0881,-0.0814,-0.0791,-0.0783,-0.0676,-0.0763,-0.0758,-0.0754,-0.0752,-0.0486,-0.0483,0,0,0,0,0,0,-0.1034,-0.1019,-0.0888,-0.0883,-0.0981,-0.0923,-0.0915,-0.0882,-0.0837,-0.0833,-0.0879,-0.0883,-0.08,-0.079,-0.078,-0.0661,-0.0757,-0.0751,-0.0748,-0.049,-0.0485,-0.0482,0,0,0,0,0,0,-0.1037,-0.1022,-0.0891,-0.0952,-0.0936,-0.0917,-0.088,-0.0879,-0.0855,-0.083,-0.0827,-0.0858,-0.0802,-0.0789,-0.0708,-0.0659,-0.0748,-0.0743,-0.0493,-0.0488,-0.0484,-0.0424,0,0,0,0,0,0,-0.1042,-0.1023,-0.0986,-0.0951,-0.0932,-0.0821,-0.0877,-0.0875,-0.0845,-0.085,-0.0809,-0.0805,-0.0803,-0.0717,-0.0702,-0.0652,-0.0738,-0.0498,-0.0491,-0.0485,-0.043,-0.0417,-0.0406,0,0,0,0,0,-0.1049,-0.0972,-0.0984,-0.0968,-0.0886,-0.0818,-0.0807,-0.0807,-0.0841,-0.0803,-0.0787,-0.0807,-0.0668,-0.0709,-0.0692,-0.0639,-0.0501,-0.0493,-0.0486,-0.0435,-0.042,-0.0407,0,0,0,0,0,0,-0.1001,-0.0968,-0.098,-0.089,-0.0857,-0.0824,-0.0777,-0.0791,-0.0747,-0.0753,-0.0754,-0.0745,-0.066,-0.0642,-0.0689,-0.0542,-0.0589,-0.0578,-0.0556,-0.0541,-0.053,-0.0535,-0.0733,0,0,0,0,0,-0.0981,-0.0929,-0.0902,-0.0825,-0.0808,-0.0795,-0.0765,-0.0768,-0.0733,-0.0719,-0.0697,-0.0661,-0.0609,-0.0575,-0.0526,-0.0428,-0.0419,-0.0384,-0.0372,-0.0363,-0.0352,-0.0297,-0.0281,-0.0457,-0.0457,-0.0457,0,0,-0.0937,-0.0912,-0.0879,-0.0815,-0.0789,-0.0734,-0.0783,-0.0723,-0.0682,-0.0709,-0.0631,-0.0614,-0.0574,-0.0484,-0.0443,-0.0466,-0.0301,-0.0353,-0.0346,-0.034,-0.0288,-0.0271,-0.0256,-0.0452,-0.0453,-0.0454,0,0,-0.0829,-0.0806,-0.0738,-0.0712,-0.0672,-0.0665,-0.0648,-0.0613,-0.0603,-0.0525,-0.0544,-0.0495,-0.0406,-0.0376,-0.0349,-0.023,-0.0246,-0.0214,-0.0151,-0.0098,-0.0084,-0.0072,-0.0027,-0.0011,-0.0204,-0.0204,-0.0204,0,-0.0779,-0.0698,-0.0701,-0.064,-0.061,-0.0634,-0.0564,-0.0538,-0.0484,-0.0463,-0.049,-0.0378,-0.0353,-0.0255,-0.0226,-0.0205,-0.0184,-0.0217,-0.0086,-0.0074,-0.0062,-0.0019,-0.0002,-0.02,-0.02,-0.0201,-0.0201,0,-0.0637,-0.0581,-0.0531,-0.0479,-0.0444,-0.0379,-0.0371,-0.0335,-0.0341,-0.033,-0.0249,-0.0221,-0.0165,-0.0143,-0.0148,-0.0045,-0.0061,-0.0087,-0.0134,-0.0041,-0.0001,0.0015,-0.0195,-0.0196,-0.0197,-0.0198,0,0,-0.0495,-0.0447,-0.0428,-0.0404,-0.0363,-0.0318,-0.0254,-0.0201,-0.0169,-0.0131,-0.0076,-0.0,-0.0024,0.0007,0.0004,0.0051,0.0147,0.0019,0.002,0.0044,0.0264,0.0286,0.0305,0.0135,0.0138,0.0141,0.0262,0,-0.0382,-0.027,-0.0271,-0.0166,-0.0113,-0.0135,-0.0078,-0.0046,-0.0034,0.0014,0.0027,0.0082,0.0045,0.0064,0.0109,0.0126,0.0191,0.0116,0.0189,0.0192,0.0183,0.0325,0.0348,0.0461,0.0277,0.028,0.0282,0,-0.0235,-0.0193,-0.0083,-0.0048,-0.0026,0.0025,0.0074,0.012,0.0156,0.0162,0.0196,0.0186,0.0254,0.0203,0.0296,0.0246,0.0275,0.0288,0.0292,0.0301,0.0244,0.0341,0.0496,0.0515,0.0306,0.0304,0.0303,0,-0.0139,-0.0056,0.0022,0.0042,0.0084,0.0121,0.014,0.0173,0.0206,0.0249,0.027,0.0321,0.0349,0.0389,0.0394,0.0356,0.049,0.0438,0.0498,0.0498,0.0529,0.0528,0.0695,0.0544,0.0544,0.0543,0.0543,0,-0.0012,0.0057,0.0065,0.0113,0.019,0.0188,0.0265,0.0281,0.0311,0.0362,0.0346,0.0395,0.0397,0.0448,0.0452,0.053,0.0543,0.0551,0.0551,0.0554,0.0553,0.0575,0.0568,0.0548,0.0547,0.0546,0.0545,0,0.0109,0.0117,0.02,0.0232,0.0242,0.0298,0.0326,0.0373,0.0382,0.0448,0.0463,0.048,0.0539,0.0547,0.0616,0.0618,0.0713,0.0705,0.0701,0.0701,0.0761,0.0756,0.095,0.0977,0.0806,0.0807,0.0809,0,0.0192,0.0244,0.0282,0.0315,0.0336,0.0389,0.0422,0.0422,0.0458,0.0503,0.0545,0.0602,0.0647,0.0743,0.0761,0.0814,0.0809,0.0873,0.0817,0.0818,0.0813,0.0811,0.0817,0.0885,0.0886,0.0888,0.0889,0,0.0338,0.0339,0.0387,0.0437,0.0476,0.0515,0.0552,0.058,0.0585,0.0626,0.0686,0.0721,0.0791,0.0849,0.0901,0.0922,0.0908,0.0906,0.0923,0.0928,0.0925,0.093,0.0734,0.0902,0.0901,0.09,0.0899,0.0899,0.0444,0.049,0.0524,0.0579,0.0606,0.0641,0.0687,0.0702,0.0752,0.0809,0.0805,0.0872,0.0908,0.0977,0.1001,0.1054,0.1033,0.1057,0.1064,0.1071,0.1078,0.0914,0.1063,0.1063,0.1062,0.1062,0.1062,0,0.0591,0.0612,0.0662,0.0714,0.0757,0.0738,0.0778,0.0816,0.0874,0.0908,0.0953,0.1023,0.1079,0.1101,0.1156,0.1194,0.1189,0.1209,0.1208,0.1214,0.1092,0.1073,0.1213,0.1213,0.1213,0.1212,0.1212,0.1212,0.0674,0.0752,0.0757,0.0849,0.087,0.0934,0.0959,0.0992,0.1019,0.1097,0.1144,0.1157,0.1188,0.1245,0.1296,0.1301,0.1324,0.1347,0.135,0.1237,0.1222,0.1207,0.119,0.1351,0.1352,0.1468,0.1469,0.1469]}]]